Home > Weather > Sangerhausen > Past weeks

Flag for Germany Weather for the Past 2 Weeks in Sangerhausen, Saxony-Anhalt, Germany

Now
41 °F

Clear.


Feels Like: 41 °F
Forecast: 44 / 71 °F
Wind: 2 mph from Northwest

Location: Erfurt-Bindersleben

Current Time: May 5, 2016 at 6:52:32 AM

Latest Report: May 5, 2016 at 6:20 AM


Visibility: 10 mi

Pressure: 30.36 "Hg

Humidity: 87%

Dew Point: 37 °F

Location of SangerhausenLocation

Historic Weather in Sangerhausen — Graph

°F

Sangerhausen Temperature Yesterday

Maximum temperature yesterday: 55 °F (at 3:20 PM)
Minimum temperature yesterday: 32 °F (at 6:20 AM)
Average temperature yesterday: 46 °F

High & Low Weather Summary for the Past Weeks

 TemperatureHumidityPressure
High63 °F (May 2, 3:20 PM)100% (Apr 25, 2:20 AM)30.42 "Hg (Apr 25, 2:20 AM)
Low28 °F (Apr 24, 4:50 AM)41% (Apr 20, 5:50 PM)29.47 "Hg (Apr 26, 1:50 AM)
Average44 °F69%30.01 "Hg
* Reported Apr 20 5:20 AM — May 5 5:20 AM, Sangerhausen, Weather by CustomWeather, © 2016

Note: Actual official high and low records may vary slightly from our data, if they occured in-between our weather recording intervals... More about our weather records

Advertising

Sangerhausen Weather History for the Previous 24 Hours

Scroll right to see more
 ConditionsComfort  
Time TempWeatherWind HumidityBarometerVisibility
5:20 AM
Thu, May 5
43 °FClear.No wind81%30.36 "Hg10 mi
4:50 AM41 °FClear.No wind81%30.36 "Hg10 mi
4:20 AM43 °FClear.No wind71%30.36 "Hg10 mi
3:50 AM43 °FClear.No wind71%30.36 "Hg10 mi
3:20 AM43 °FClear.1 mph71%30.36 "Hg10 mi
2:50 AM43 °FClear.3 mph71%30.36 "Hg10 mi
2:20 AM43 °FClear.6 mph71%30.36 "Hg10 mi
1:50 AM45 °FClear.6 mph71%30.36 "Hg10 mi
1:20 AM45 °FClear.6 mph66%30.36 "Hg10 mi
12:50 AM45 °FClear.6 mph61%30.39 "Hg10 mi
12:20 AM43 °FClear.7 mph71%30.39 "Hg10 mi
11:50 PM
Wed, May 4
46 °FClear.No wind53%30.39 "Hg10 mi
11:20 PM46 °FClear.2 mph53%30.39 "Hg10 mi
10:50 PM46 °FClear.3 mph53%30.39 "Hg10 mi
10:20 PM48 °FPassing clouds.3 mph50%30.36 "HgN/A
9:50 PM48 °FClear.3 mph54%30.36 "Hg10 mi
9:20 PM48 °FSunny.5 mph54%30.36 "Hg10 mi
8:50 PM48 °FSunny.5 mph54%30.36 "Hg10 mi
8:20 PM50 °FSunny.6 mph50%30.36 "Hg10 mi
7:50 PM52 °FSunny.7 mph47%30.36 "Hg10 mi
7:20 PM52 °FPassing clouds.8 mph50%30.33 "HgN/A
6:50 PM54 °FPassing clouds.9 mph44%30.33 "HgN/A
6:20 PM55 °FPassing clouds.8 mph41%30.33 "HgN/A
5:50 PM55 °FPassing clouds.8 mph41%30.33 "HgN/A
5:20 PM55 °FPassing clouds.9 mph41%30.33 "HgN/A
4:50 PM55 °FPassing clouds.8 mph41%30.33 "HgN/A
4:20 PM55 °FPassing clouds.6 mph41%30.36 "HgN/A
3:50 PM55 °FScattered clouds.8 mph41%30.36 "HgN/A
3:20 PM55 °FScattered clouds.8 mph44%30.36 "HgN/A
2:50 PM54 °FScattered clouds.6 mph47%30.36 "HgN/A
2:20 PM54 °FScattered clouds.8 mph51%30.36 "HgN/A
1:50 PM54 °FScattered clouds.8 mph51%30.36 "HgN/A
1:20 PM52 °FScattered clouds.6 mph50%30.36 "HgN/A
12:50 PM50 °FScattered clouds.7 mph54%30.36 "HgN/A
12:20 PM50 °FPartly sunny.8 mph54%30.36 "HgN/A
11:50 AM50 °FPartly sunny.6 mph58%30.39 "HgN/A
11:20 AM50 °FPartly sunny.5 mph62%30.39 "HgN/A
10:50 AM48 °FPartly sunny.7 mph66%30.39 "HgN/A
10:20 AM46 °FPartly sunny.6 mph71%30.39 "HgN/A
9:50 AM45 °FPartly sunny.8 mph71%30.39 "HgN/A
9:20 AM45 °FPartly sunny.7 mph71%30.36 "HgN/A
8:50 AM45 °FScattered clouds.7 mph71%30.36 "HgN/A
8:20 AM45 °FPassing clouds.7 mph76%30.36 "HgN/A
7:50 AM41 °FSunny.8 mph87%30.36 "Hg10 mi
7:20 AM37 °FSunny.8 mph93%30.36 "Hg10 mi
6:50 AM34 °FSunny.8 mph93%30.33 "Hg10 mi
6:20 AM32 °FClear.7 mph93%30.33 "Hg10 mi
Weather by CustomWeather, © 2016

See weather overviewHow to use our weather pages